Overview Statistics Trail Chart Weather Telemetry Raw packets
 

This is the latest recevied weather packets stored in our database for station/object WP3OF-2. If no packets are shown the sender has not sent any weather packets the latest 10 day(s).

<< 41 42 43 44 45 46 47 >>
Time Temp. Humidity Pressure Rain* Wind** Luminosity Snow
1788280353 25° C 85% 1027.1 hPa 0 mm - 822 W/m² -
1788280048 25.56° C 84% 1026.7 hPa 0 mm - 930 W/m² -
1788279751 25.56° C 83% 1027.1 hPa 0 mm - 993 W/m² -
1788279447 25.56° C 84% 1027.1 hPa 0 mm - 903 W/m² -
1788279141 26.11° C 80% 1027.1 hPa 0 mm - 237 W/m² -
1788278838 25.56° C 82% 1027.1 hPa 0 mm - 850 W/m² -
1788278533 25.56° C 78% 1027.1 hPa 0 mm - 812 W/m² -
1788278231 25.56° C 79% 1027.1 hPa 0 mm - 789 W/m² -
1788277927 25.56° C 80% 1027.1 hPa 0 mm - 776 W/m² -
1788277621 25.56° C 82% 1027.4 hPa 0 mm - 780 W/m² -
1788277111 25° C 82% 1027.4 hPa 0 mm - 868 W/m² -
1788276806 25° C 82% 1027.4 hPa 0 mm - 868 W/m² -
1788276504 25° C 80% 1027.4 hPa 0 mm - 831 W/m² -
1788276204 25° C 82% 1027.4 hPa 0 mm - 724 W/m² -
1788275894 24.44° C 83% 1027.4 hPa 0 mm - 677 W/m² -
1788275594 24.44° C 81% 1027.4 hPa 0 mm - 779 W/m² -
1788275288 24.44° C 80% 1027.4 hPa 0 mm - 780 W/m² -
1788274986 24.44° C 80% 1027.4 hPa 0 mm - 780 W/m² -
1788274683 25° C 81% 1027.4 hPa 0 mm - 773 W/m² -
1788274378 25° C 81% 1027.4 hPa 0 mm - 785 W/m² -
1788274073 25° C 80% 1027.4 hPa 0 mm - 804 W/m² -
1788273769 23.89° C 81% 1027.4 hPa 0 mm - 786 W/m² -
1788273465 23.89° C 82% 1027.4 hPa 0 mm - 783 W/m² -
1788273161 24.44° C 81% 1027.4 hPa 0 mm - 815 W/m² -
1788272857 23.89° C 81% 1027.9 hPa 0 mm - 864 W/m² -

* Rain latest hour (hover to see other rain measurements)
** Current wind speed in m/s (hover to see current wind gust speed)